owner,sensor,date,latitude,longitude,vertical_datum,mass_concentration_of_oxygen_in_sea_water,qcFlag 
LUMCON,ioos:station:LUMCON:101:1,2019-05-01T00:00:00Z,29.2533,-90.6633,2.0,6.71,11111222 
LUMCON,ioos:station:LUMCON:101:1,2019-05-01T00:15:00Z,29.2533,-90.6633,1.998,6.7,11111222 
LUMCON,ioos:station:LUMCON:101:1,2019-05-01T00:30:00Z,29.2533,-90.6633,2.0,5.91,11111222 
LUMCON,ioos:station:LUMCON:101:1,2019-05-01T00:45:00Z,29.2533,-90.6633,1.999,4.4,11111222 
LUMCON,ioos:station:LUMCON:101:1,2019-05-01T01:00:00Z,29.2533,-90.6633,1.999,5.0,11111222 
LUMCON,ioos:station:LUMCON:101:1,2019-05-01T01:15:00Z,29.2533,-90.6633,1.998,6.06,11111222 
LUMCON,ioos:station:LUMCON:101:1,2019-05-01T01:30:00Z,29.2533,-90.6633,1.998,6.08,11111222 
LUMCON,ioos:station:LUMCON:101:1,2019-05-01T01:45:00Z,29.2533,-90.6633,2.001,5.83,11111222 
LUMCON,ioos:station:LUMCON:101:1,2019-05-01T02:00:00Z,29.2533,-90.6633,2.002,5.3,11111222 
LUMCON,ioos:station:LUMCON:101:1,2019-05-01T02:15:00Z,29.2533,-90.6633,2.008,5.35,11111222 
LUMCON,ioos:station:LUMCON:101:1,2019-05-01T02:30:00Z,29.2533,-90.6633,2.013,6.42,11111222 
LUMCON,ioos:station:LUMCON:101:1,2019-05-01T02:45:00Z,29.2533,-90.6633,2.018,6.37,11111222 
LUMCON,ioos:station:LUMCON:101:1,2019-05-01T03:00:00Z,29.2533,-90.6633,2.019,6.61,11111222 
LUMCON,ioos:station:LUMCON:101:1,2019-05-01T03:15:00Z,29.2533,-90.6633,2.026,6.71,11111222 
LUMCON,ioos:station:LUMCON:101:1,2019-05-01T03:30:00Z,29.2533,-90.6633,2.027,6.8,11111222 
LUMCON,ioos:station:LUMCON:101:1,2019-05-01T03:45:00Z,29.2533,-90.6633,2.031,6.26,11111222 
LUMCON,ioos:station:LUMCON:101:1,2019-05-01T04:00:00Z,29.2533,-90.6633,2.037,6.07,11111222 
LUMCON,ioos:station:LUMCON:101:1,2019-05-01T04:15:00Z,29.2533,-90.6633,2.042,5.92,11111222 
LUMCON,ioos:station:LUMCON:101:1,2019-05-01T04:30:00Z,29.2533,-90.6633,2.048,6.02,11111222 
LUMCON,ioos:station:LUMCON:101:1,2019-05-01T04:45:00Z,29.2533,-90.6633,2.051,6.27,11111222 
LUMCON,ioos:station:LUMCON:101:1,2019-05-01T05:00:00Z,29.2533,-90.6633,2.056,6.37,11111222 
LUMCON,ioos:station:LUMCON:101:1,2019-05-01T05:15:00Z,29.2533,-90.6633,2.061,6.4,11111222 
LUMCON,ioos:station:LUMCON:101:1,2019-05-01T05:30:00Z,29.2533,-90.6633,2.065,6.65,11111222 
LUMCON,ioos:station:LUMCON:101:1,2019-05-01T05:45:00Z,29.2533,-90.6633,2.064,6.64,11111222 
LUMCON,ioos:station:LUMCON:101:1,2019-05-01T06:00:00Z,29.2533,-90.6633,2.067,6.58,11111222 
LUMCON,ioos:station:LUMCON:101:1,2019-05-01T06:15:00Z,29.2533,-90.6633,2.067,6.68,11111222 
LUMCON,ioos:station:LUMCON:101:1,2019-05-01T06:30:00Z,29.2533,-90.6633,2.067,6.8,11111222 
LUMCON,ioos:station:LUMCON:101:1,2019-05-01T06:45:00Z,29.2533,-90.6633,2.066,6.53,11111222 
LUMCON,ioos:station:LUMCON:101:1,2019-05-01T07:00:00Z,29.2533,-90.6633,2.068,6.49,11111222 
LUMCON,ioos:station:LUMCON:101:1,2019-05-01T07:15:00Z,29.2533,-90.6633,2.069,6.45,11111222 
LUMCON,ioos:station:LUMCON:101:1,2019-05-01T07:30:00Z,29.2533,-90.6633,2.067,5.92,11111222 
LUMCON,ioos:station:LUMCON:101:1,2019-05-01T07:45:00Z,29.2533,-90.6633,2.07,5.76,11111222 
LUMCON,ioos:station:LUMCON:101:1,2019-05-01T08:00:00Z,29.2533,-90.6633,2.059,6.29,11111222 
LUMCON,ioos:station:LUMCON:101:1,2019-05-01T08:15:00Z,29.2533,-90.6633,2.056,6.19,11111222 
LUMCON,ioos:station:LUMCON:101:1,2019-05-01T08:30:00Z,29.2533,-90.6633,2.057,5.83,11111222 
LUMCON,ioos:station:LUMCON:101:1,2019-05-01T08:45:00Z,29.2533,-90.6633,2.05,5.96,11111222 
LUMCON,ioos:station:LUMCON:101:1,2019-05-01T09:00:00Z,29.2533,-90.6633,2.045,6.14,11111222 
LUMCON,ioos:station:LUMCON:101:1,2019-05-01T09:15:00Z,29.2533,-90.6633,2.038,6.04,11111222 
LUMCON,ioos:station:LUMCON:101:1,2019-05-01T09:30:00Z,29.2533,-90.6633,2.032,5.93,11111222 
LUMCON,ioos:station:LUMCON:101:1,2019-05-01T09:45:00Z,29.2533,-90.6633,2.02,5.96,11111222 
LUMCON,ioos:station:LUMCON:101:1,2019-05-01T10:00:00Z,29.2533,-90.6633,2.013,5.76,11111222 
LUMCON,ioos:station:LUMCON:101:1,2019-05-01T10:15:00Z,29.2533,-90.6633,2.01,5.55,11111222 
LUMCON,ioos:station:LUMCON:101:1,2019-05-01T10:30:00Z,29.2533,-90.6633,1.999,5.47,11111222 
LUMCON,ioos:station:LUMCON:101:1,2019-05-01T10:45:00Z,29.2533,-90.6633,2.001,5.41,11111222 
LUMCON,ioos:station:LUMCON:101:1,2019-05-01T11:00:00Z,29.2533,-90.6633,1.995,5.39,11111222 
LUMCON,ioos:station:LUMCON:101:1,2019-05-01T11:15:00Z,29.2533,-90.6633,1.99,5.41,11111222 
LUMCON,ioos:station:LUMCON:101:1,2019-05-01T11:30:00Z,29.2533,-90.6633,1.981,5.32,11111222 
LUMCON,ioos:station:LUMCON:101:1,2019-05-01T11:45:00Z,29.2533,-90.6633,1.976,5.24,11111222 
LUMCON,ioos:station:LUMCON:101:1,2019-05-01T12:00:00Z,29.2533,-90.6633,1.975,5.14,11111222 
LUMCON,ioos:station:LUMCON:101:1,2019-05-01T12:15:00Z,29.2533,-90.6633,1.964,5.11,11111222 
LUMCON,ioos:station:LUMCON:101:1,2019-05-01T12:30:00Z,29.2533,-90.6633,1.958,5.06,11111222 
LUMCON,ioos:station:LUMCON:101:1,2019-05-01T12:45:00Z,29.2533,-90.6633,1.948,5.05,11111222 
LUMCON,ioos:station:LUMCON:101:1,2019-05-01T13:00:00Z,29.2533,-90.6633,1.943,5.0,11111222 
LUMCON,ioos:station:LUMCON:101:1,2019-05-01T13:15:00Z,29.2533,-90.6633,1.942,4.91,11111222 
LUMCON,ioos:station:LUMCON:101:1,2019-05-01T13:30:00Z,29.2533,-90.6633,1.945,4.94,11111222 
LUMCON,ioos:station:LUMCON:101:1,2019-05-01T13:45:00Z,29.2533,-90.6633,1.951,4.93,11111222 
LUMCON,ioos:station:LUMCON:101:1,2019-05-01T14:00:00Z,29.2533,-90.6633,1.95,4.86,11111222 
LUMCON,ioos:station:LUMCON:101:1,2019-05-01T14:15:00Z,29.2533,-90.6633,1.959,4.08,11111222 
LUMCON,ioos:station:LUMCON:101:1,2019-05-01T14:30:00Z,29.2533,-90.6633,1.959,4.69,11111222 
LUMCON,ioos:station:LUMCON:101:1,2019-05-01T14:45:00Z,29.2533,-90.6633,1.965,5.01,11111222 
LUMCON,ioos:station:LUMCON:101:1,2019-05-01T15:00:00Z,29.2533,-90.6633,1.97,5.5,11111222 
LUMCON,ioos:station:LUMCON:101:1,2019-05-01T15:15:00Z,29.2533,-90.6633,1.981,5.41,11111222 
LUMCON,ioos:station:LUMCON:101:1,2019-05-01T15:30:00Z,29.2533,-90.6633,1.986,5.37,11111222 
LUMCON,ioos:station:LUMCON:101:1,2019-05-01T15:45:00Z,29.2533,-90.6633,1.989,5.48,11111222 
LUMCON,ioos:station:LUMCON:101:1,2019-05-01T16:00:00Z,29.2533,-90.6633,1.999,5.58,11111222 
LUMCON,ioos:station:LUMCON:101:1,2019-05-01T16:15:00Z,29.2533,-90.6633,2.003,5.72,11111222 
LUMCON,ioos:station:LUMCON:101:1,2019-05-01T16:30:00Z,29.2533,-90.6633,2.002,5.78,11111222 
LUMCON,ioos:station:LUMCON:101:1,2019-05-01T16:45:00Z,29.2533,-90.6633,2.002,5.71,11111222 
LUMCON,ioos:station:LUMCON:101:1,2019-05-01T17:00:00Z,29.2533,-90.6633,2.008,5.96,11111222 
LUMCON,ioos:station:LUMCON:101:1,2019-05-01T17:15:00Z,29.2533,-90.6633,2.012,5.8,11111222 
LUMCON,ioos:station:LUMCON:101:1,2019-05-01T17:30:00Z,29.2533,-90.6633,2.016,5.81,11111222 
LUMCON,ioos:station:LUMCON:101:1,2019-05-01T17:45:00Z,29.2533,-90.6633,2.015,6.01,11111222 
LUMCON,ioos:station:LUMCON:101:1,2019-05-01T18:00:00Z,29.2533,-90.6633,2.021,5.93,11111222 
LUMCON,ioos:station:LUMCON:101:1,2019-05-01T18:15:00Z,29.2533,-90.6633,2.02,5.81,11111222 
LUMCON,ioos:station:LUMCON:101:1,2019-05-01T18:30:00Z,29.2533,-90.6633,2.017,5.49,11111222 
LUMCON,ioos:station:LUMCON:101:1,2019-05-01T18:45:00Z,29.2533,-90.6633,2.017,5.66,11111222 
LUMCON,ioos:station:LUMCON:101:1,2019-05-01T19:00:00Z,29.2533,-90.6633,2.014,6.12,11111222 
LUMCON,ioos:station:LUMCON:101:1,2019-05-01T19:15:00Z,29.2533,-90.6633,2.011,5.99,11111222 
LUMCON,ioos:station:LUMCON:101:1,2019-05-01T19:30:00Z,29.2533,-90.6633,2.0,6.12,11111222 
LUMCON,ioos:station:LUMCON:101:1,2019-05-01T19:45:00Z,29.2533,-90.6633,1.999,6.23,11111222 
LUMCON,ioos:station:LUMCON:101:1,2019-05-01T20:00:00Z,29.2533,-90.6633,1.998,6.36,11111222 
LUMCON,ioos:station:LUMCON:101:1,2019-05-01T20:15:00Z,29.2533,-90.6633,1.997,6.56,11111222 
LUMCON,ioos:station:LUMCON:101:1,2019-05-01T20:30:00Z,29.2533,-90.6633,1.994,6.38,11111222 
LUMCON,ioos:station:LUMCON:101:1,2019-05-01T20:45:00Z,29.2533,-90.6633,1.989,6.64,11111222 
LUMCON,ioos:station:LUMCON:101:1,2019-05-01T21:00:00Z,29.2533,-90.6633,1.986,6.61,11111222 
LUMCON,ioos:station:LUMCON:101:1,2019-05-01T21:15:00Z,29.2533,-90.6633,1.984,6.59,11111222 
LUMCON,ioos:station:LUMCON:101:1,2019-05-01T21:30:00Z,29.2533,-90.6633,1.976,6.49,11111222 
LUMCON,ioos:station:LUMCON:101:1,2019-05-01T21:45:00Z,29.2533,-90.6633,1.972,6.52,11111222 
LUMCON,ioos:station:LUMCON:101:1,2019-05-01T22:00:00Z,29.2533,-90.6633,1.968,6.72,11111222 
LUMCON,ioos:station:LUMCON:101:1,2019-05-01T22:15:00Z,29.2533,-90.6633,1.964,6.74,11111222 
LUMCON,ioos:station:LUMCON:101:1,2019-05-01T22:30:00Z,29.2533,-90.6633,1.964,6.63,11111222 
LUMCON,ioos:station:LUMCON:101:1,2019-05-01T22:45:00Z,29.2533,-90.6633,1.961,6.42,11111222 
LUMCON,ioos:station:LUMCON:101:1,2019-05-01T23:00:00Z,29.2533,-90.6633,1.963,6.48,11111222 
LUMCON,ioos:station:LUMCON:101:1,2019-05-01T23:15:00Z,29.2533,-90.6633,1.963,5.37,11111222 
LUMCON,ioos:station:LUMCON:101:1,2019-05-01T23:30:00Z,29.2533,-90.6633,1.964,6.05,11111222 
LUMCON,ioos:station:LUMCON:101:1,2019-05-01T23:45:00Z,29.2533,-90.6633,1.965,6.01,11111222 
LUMCON,ioos:station:LUMCON:101:1,2019-05-02T00:00:00Z,29.2533,-90.6633,1.966,6.06,11111222 
LUMCON,ioos:station:LUMCON:101:1,2019-05-02T00:15:00Z,29.2533,-90.6633,1.966,6.37,11111222 
LUMCON,ioos:station:LUMCON:101:1,2019-05-02T00:30:00Z,29.2533,-90.6633,1.969,6.72,11111222 
LUMCON,ioos:station:LUMCON:101:1,2019-05-02T00:45:00Z,29.2533,-90.6633,1.968,6.32,11111222 
LUMCON,ioos:station:LUMCON:101:1,2019-05-02T01:00:00Z,29.2533,-90.6633,1.967,6.36,11111222 
LUMCON,ioos:station:LUMCON:101:1,2019-05-02T01:15:00Z,29.2533,-90.6633,1.969,6.3,11111222 
LUMCON,ioos:station:LUMCON:101:1,2019-05-02T01:30:00Z,29.2533,-90.6633,1.972,6.45,11111222 
LUMCON,ioos:station:LUMCON:101:1,2019-05-02T01:45:00Z,29.2533,-90.6633,1.971,6.63,11111222 
LUMCON,ioos:station:LUMCON:101:1,2019-05-02T02:00:00Z,29.2533,-90.6633,1.975,6.61,11111222 
LUMCON,ioos:station:LUMCON:101:1,2019-05-02T02:15:00Z,29.2533,-90.6633,1.977,6.27,11111222 
LUMCON,ioos:station:LUMCON:101:1,2019-05-02T02:30:00Z,29.2533,-90.6633,1.984,6.55,11111222 
LUMCON,ioos:station:LUMCON:101:1,2019-05-02T02:45:00Z,29.2533,-90.6633,1.988,6.16,11111222 
LUMCON,ioos:station:LUMCON:101:1,2019-05-02T03:00:00Z,29.2533,-90.6633,1.991,6.36,11111222 
LUMCON,ioos:station:LUMCON:101:1,2019-05-02T03:15:00Z,29.2533,-90.6633,1.995,6.67,11111222 
LUMCON,ioos:station:LUMCON:101:1,2019-05-02T03:30:00Z,29.2533,-90.6633,2.002,6.6,11111222 
LUMCON,ioos:station:LUMCON:101:1,2019-05-02T03:45:00Z,29.2533,-90.6633,2.01,6.66,11111222 
LUMCON,ioos:station:LUMCON:101:1,2019-05-02T04:00:00Z,29.2533,-90.6633,2.015,6.63,11111222 
LUMCON,ioos:station:LUMCON:101:1,2019-05-02T04:15:00Z,29.2533,-90.6633,2.023,6.59,11111222 
LUMCON,ioos:station:LUMCON:101:1,2019-05-02T04:30:00Z,29.2533,-90.6633,2.031,6.51,11111222 
LUMCON,ioos:station:LUMCON:101:1,2019-05-02T04:45:00Z,29.2533,-90.6633,2.04,6.61,11111222 
LUMCON,ioos:station:LUMCON:101:1,2019-05-02T05:00:00Z,29.2533,-90.6633,2.051,6.79,11111222 
LUMCON,ioos:station:LUMCON:101:1,2019-05-02T05:15:00Z,29.2533,-90.6633,2.056,6.69,11111222 
LUMCON,ioos:station:LUMCON:101:1,2019-05-02T05:30:00Z,29.2533,-90.6633,2.06,6.59,11111222 
LUMCON,ioos:station:LUMCON:101:1,2019-05-02T05:45:00Z,29.2533,-90.6633,2.062,6.45,11111222 
LUMCON,ioos:station:LUMCON:101:1,2019-05-02T06:00:00Z,29.2533,-90.6633,2.063,6.68,11111222 
LUMCON,ioos:station:LUMCON:101:1,2019-05-02T06:15:00Z,29.2533,-90.6633,2.069,6.67,11111222 
LUMCON,ioos:station:LUMCON:101:1,2019-05-02T06:30:00Z,29.2533,-90.6633,2.081,6.44,11111222 
LUMCON,ioos:station:LUMCON:101:1,2019-05-02T06:45:00Z,29.2533,-90.6633,2.079,6.6,11111222 
LUMCON,ioos:station:LUMCON:101:1,2019-05-02T07:00:00Z,29.2533,-90.6633,2.083,6.32,11111222 
LUMCON,ioos:station:LUMCON:101:1,2019-05-02T07:15:00Z,29.2533,-90.6633,2.088,6.47,11111222 
LUMCON,ioos:station:LUMCON:101:1,2019-05-02T07:30:00Z,29.2533,-90.6633,2.094,6.45,11111222 
LUMCON,ioos:station:LUMCON:101:1,2019-05-02T07:45:00Z,29.2533,-90.6633,2.091,6.22,11111222 
LUMCON,ioos:station:LUMCON:101:1,2019-05-02T08:00:00Z,29.2533,-90.6633,2.091,6.3,11111222 
LUMCON,ioos:station:LUMCON:101:1,2019-05-02T08:15:00Z,29.2533,-90.6633,2.088,6.17,11111222 
LUMCON,ioos:station:LUMCON:101:1,2019-05-02T08:30:00Z,29.2533,-90.6633,2.084,5.44,11111222 
LUMCON,ioos:station:LUMCON:101:1,2019-05-02T08:45:00Z,29.2533,-90.6633,2.075,6.14,11111222 
LUMCON,ioos:station:LUMCON:101:1,2019-05-02T09:00:00Z,29.2533,-90.6633,2.069,6.32,11111222 
LUMCON,ioos:station:LUMCON:101:1,2019-05-02T09:15:00Z,29.2533,-90.6633,2.07,6.16,11111222 
LUMCON,ioos:station:LUMCON:101:1,2019-05-02T09:30:00Z,29.2533,-90.6633,2.06,6.04,11111222 
LUMCON,ioos:station:LUMCON:101:1,2019-05-02T09:45:00Z,29.2533,-90.6633,2.06,5.94,11111222 
LUMCON,ioos:station:LUMCON:101:1,2019-05-02T10:00:00Z,29.2533,-90.6633,2.048,5.89,11111222 
LUMCON,ioos:station:LUMCON:101:1,2019-05-02T10:15:00Z,29.2533,-90.6633,2.038,5.69,11111222 
LUMCON,ioos:station:LUMCON:101:1,2019-05-02T10:30:00Z,29.2533,-90.6633,2.031,5.61,11111222 
LUMCON,ioos:station:LUMCON:101:1,2019-05-02T10:45:00Z,29.2533,-90.6633,2.03,5.52,11111222 
LUMCON,ioos:station:LUMCON:101:1,2019-05-02T11:00:00Z,29.2533,-90.6633,2.033,5.41,11111222 
LUMCON,ioos:station:LUMCON:101:1,2019-05-02T11:15:00Z,29.2533,-90.6633,2.042,4.95,11111222 
LUMCON,ioos:station:LUMCON:101:1,2019-05-02T11:30:00Z,29.2533,-90.6633,2.053,4.7,11111222 
LUMCON,ioos:station:LUMCON:101:1,2019-05-02T11:45:00Z,29.2533,-90.6633,2.06,4.99,11111222 
LUMCON,ioos:station:LUMCON:101:1,2019-05-02T12:00:00Z,29.2533,-90.6633,2.069,4.8,11111222 
LUMCON,ioos:station:LUMCON:101:1,2019-05-02T12:15:00Z,29.2533,-90.6633,2.069,4.67,11111222 
LUMCON,ioos:station:LUMCON:101:1,2019-05-02T12:30:00Z,29.2533,-90.6633,2.06,4.75,11111222 
LUMCON,ioos:station:LUMCON:101:1,2019-05-02T12:45:00Z,29.2533,-90.6633,2.05,4.88,11111222 
LUMCON,ioos:station:LUMCON:101:1,2019-05-02T13:00:00Z,29.2533,-90.6633,2.051,4.67,11111222 
LUMCON,ioos:station:LUMCON:101:1,2019-05-02T13:15:00Z,29.2533,-90.6633,2.054,3.8,11111222 
LUMCON,ioos:station:LUMCON:101:1,2019-05-02T13:30:00Z,29.2533,-90.6633,2.058,4.13,11111222 
LUMCON,ioos:station:LUMCON:101:1,2019-05-02T13:45:00Z,29.2533,-90.6633,2.071,5.04,11111222 
LUMCON,ioos:station:LUMCON:101:1,2019-05-02T14:00:00Z,29.2533,-90.6633,2.064,4.49,11111222 
LUMCON,ioos:station:LUMCON:101:1,2019-05-02T14:15:00Z,29.2533,-90.6633,2.06,4.59,11111222 
LUMCON,ioos:station:LUMCON:101:1,2019-05-02T14:30:00Z,29.2533,-90.6633,2.058,4.82,11111222 
LUMCON,ioos:station:LUMCON:101:1,2019-05-02T14:45:00Z,29.2533,-90.6633,2.063,5.05,11111222 
LUMCON,ioos:station:LUMCON:101:1,2019-05-02T15:00:00Z,29.2533,-90.6633,2.065,5.6,11111222 
LUMCON,ioos:station:LUMCON:101:1,2019-05-02T15:15:00Z,29.2533,-90.6633,2.068,4.87,11111222 
LUMCON,ioos:station:LUMCON:101:1,2019-05-02T15:30:00Z,29.2533,-90.6633,2.066,5.22,11111222 
LUMCON,ioos:station:LUMCON:101:1,2019-05-02T15:45:00Z,29.2533,-90.6633,2.064,5.25,11111222 
LUMCON,ioos:station:LUMCON:101:1,2019-05-02T16:00:00Z,29.2533,-90.6633,2.069,4.49,11111222 
LUMCON,ioos:station:LUMCON:101:1,2019-05-02T16:15:00Z,29.2533,-90.6633,2.06,4.49,11111222 
LUMCON,ioos:station:LUMCON:101:1,2019-05-02T16:30:00Z,29.2533,-90.6633,2.046,5.64,11111222 
LUMCON,ioos:station:LUMCON:101:1,2019-05-02T16:45:00Z,29.2533,-90.6633,2.025,5.85,11111222 
LUMCON,ioos:station:LUMCON:101:1,2019-05-02T17:00:00Z,29.2533,-90.6633,2.021,5.69,11111222 
LUMCON,ioos:station:LUMCON:101:1,2019-05-02T17:15:00Z,29.2533,-90.6633,2.009,5.34,11111222 
LUMCON,ioos:station:LUMCON:101:1,2019-05-02T17:30:00Z,29.2533,-90.6633,2.003,5.06,11111222 
LUMCON,ioos:station:LUMCON:101:1,2019-05-02T17:45:00Z,29.2533,-90.6633,1.991,4.96,11111222 
LUMCON,ioos:station:LUMCON:101:1,2019-05-02T18:00:00Z,29.2533,-90.6633,1.991,5.0,11111222 
LUMCON,ioos:station:LUMCON:101:1,2019-05-02T18:15:00Z,29.2533,-90.6633,1.984,5.22,11111222 
LUMCON,ioos:station:LUMCON:101:1,2019-05-02T18:30:00Z,29.2533,-90.6633,1.978,5.35,11111222 
LUMCON,ioos:station:LUMCON:101:1,2019-05-02T18:45:00Z,29.2533,-90.6633,1.967,5.46,11111222 
LUMCON,ioos:station:LUMCON:101:1,2019-05-02T19:00:00Z,29.2533,-90.6633,1.953,5.74,11111222 
LUMCON,ioos:station:LUMCON:101:1,2019-05-02T19:15:00Z,29.2533,-90.6633,1.94,5.84,11111222 
LUMCON,ioos:station:LUMCON:101:1,2019-05-02T19:30:00Z,29.2533,-90.6633,1.928,5.82,11111222 
LUMCON,ioos:station:LUMCON:101:1,2019-05-02T19:45:00Z,29.2533,-90.6633,1.929,5.92,11111222 
LUMCON,ioos:station:LUMCON:101:1,2019-05-02T20:00:00Z,29.2533,-90.6633,1.926,6.03,11111222 
LUMCON,ioos:station:LUMCON:101:1,2019-05-02T20:15:00Z,29.2533,-90.6633,1.915,6.0,11111222 
LUMCON,ioos:station:LUMCON:101:1,2019-05-02T20:30:00Z,29.2533,-90.6633,1.909,6.05,11111222 
LUMCON,ioos:station:LUMCON:101:1,2019-05-02T20:45:00Z,29.2533,-90.6633,1.904,6.1,11111222 
LUMCON,ioos:station:LUMCON:101:1,2019-05-02T21:00:00Z,29.2533,-90.6633,1.909,6.21,11111222 
LUMCON,ioos:station:LUMCON:101:1,2019-05-02T21:15:00Z,29.2533,-90.6633,1.912,6.24,11111222 
LUMCON,ioos:station:LUMCON:101:1,2019-05-02T21:30:00Z,29.2533,-90.6633,1.918,6.23,11111222 
LUMCON,ioos:station:LUMCON:101:1,2019-05-02T21:45:00Z,29.2533,-90.6633,1.907,6.19,11111222 
LUMCON,ioos:station:LUMCON:101:1,2019-05-02T22:00:00Z,29.2533,-90.6633,1.906,6.22,11111222 
LUMCON,ioos:station:LUMCON:101:1,2019-05-02T22:15:00Z,29.2533,-90.6633,1.914,5.81,11111222 
LUMCON,ioos:station:LUMCON:101:1,2019-05-02T22:30:00Z,29.2533,-90.6633,1.91,5.4,11111222 
LUMCON,ioos:station:LUMCON:101:1,2019-05-02T22:45:00Z,29.2533,-90.6633,1.911,5.31,11111222 
LUMCON,ioos:station:LUMCON:101:1,2019-05-02T23:00:00Z,29.2533,-90.6633,1.919,5.99,11111222 
LUMCON,ioos:station:LUMCON:101:1,2019-05-02T23:15:00Z,29.2533,-90.6633,1.927,5.77,11111222 
LUMCON,ioos:station:LUMCON:101:1,2019-05-02T23:30:00Z,29.2533,-90.6633,1.926,5.13,11111222 
LUMCON,ioos:station:LUMCON:101:1,2019-05-02T23:45:00Z,29.2533,-90.6633,1.915,5.81,11111222 
LUMCON,ioos:station:LUMCON:101:1,2019-05-03T00:00:00Z,29.2533,-90.6633,1.912,5.61,11111222 
LUMCON,ioos:station:LUMCON:101:1,2019-05-03T00:15:00Z,29.2533,-90.6633,1.913,6.04,11111222 
LUMCON,ioos:station:LUMCON:101:1,2019-05-03T00:30:00Z,29.2533,-90.6633,1.907,5.69,11111222 
LUMCON,ioos:station:LUMCON:101:1,2019-05-03T00:45:00Z,29.2533,-90.6633,1.918,5.76,11111222 
LUMCON,ioos:station:LUMCON:101:1,2019-05-03T01:00:00Z,29.2533,-90.6633,1.916,5.76,11111222 
LUMCON,ioos:station:LUMCON:101:1,2019-05-03T01:15:00Z,29.2533,-90.6633,1.918,6.07,11111222 
LUMCON,ioos:station:LUMCON:101:1,2019-05-03T01:30:00Z,29.2533,-90.6633,1.92,5.77,11111222 
LUMCON,ioos:station:LUMCON:101:1,2019-05-03T01:45:00Z,29.2533,-90.6633,1.93,4.52,11111222 
LUMCON,ioos:station:LUMCON:101:1,2019-05-03T02:00:00Z,29.2533,-90.6633,1.928,4.12,11111222 
LUMCON,ioos:station:LUMCON:101:1,2019-05-03T02:15:00Z,29.2533,-90.6633,1.935,5.47,11111222 
LUMCON,ioos:station:LUMCON:101:1,2019-05-03T02:30:00Z,29.2533,-90.6633,1.934,5.47,11111222 
LUMCON,ioos:station:LUMCON:101:1,2019-05-03T02:45:00Z,29.2533,-90.6633,1.939,5.28,11111222 
LUMCON,ioos:station:LUMCON:101:1,2019-05-03T03:00:00Z,29.2533,-90.6633,1.944,5.53,11111222 
LUMCON,ioos:station:LUMCON:101:1,2019-05-03T03:15:00Z,29.2533,-90.6633,1.95,5.54,11111222 
LUMCON,ioos:station:LUMCON:101:1,2019-05-03T03:30:00Z,29.2533,-90.6633,1.947,5.22,11111222 
LUMCON,ioos:station:LUMCON:101:1,2019-05-03T03:45:00Z,29.2533,-90.6633,1.939,5.41,11111222 
LUMCON,ioos:station:LUMCON:101:1,2019-05-03T04:00:00Z,29.2533,-90.6633,1.942,5.62,11111222 
LUMCON,ioos:station:LUMCON:101:1,2019-05-03T04:15:00Z,29.2533,-90.6633,1.949,4.69,11111222 
LUMCON,ioos:station:LUMCON:101:1,2019-05-03T04:30:00Z,29.2533,-90.6633,1.95,5.12,11111222 
LUMCON,ioos:station:LUMCON:101:1,2019-05-03T04:45:00Z,29.2533,-90.6633,1.962,5.84,11111222 
LUMCON,ioos:station:LUMCON:101:1,2019-05-03T05:00:00Z,29.2533,-90.6633,1.963,5.28,11111222 
LUMCON,ioos:station:LUMCON:101:1,2019-05-03T05:15:00Z,29.2533,-90.6633,1.969,5.75,11111222 
LUMCON,ioos:station:LUMCON:101:1,2019-05-03T05:30:00Z,29.2533,-90.6633,1.982,5.76,11111222 
LUMCON,ioos:station:LUMCON:101:1,2019-05-03T05:45:00Z,29.2533,-90.6633,1.977,5.22,11111222 
LUMCON,ioos:station:LUMCON:101:1,2019-05-03T06:00:00Z,29.2533,-90.6633,1.967,5.75,11111222 
LUMCON,ioos:station:LUMCON:101:1,2019-05-03T06:15:00Z,29.2533,-90.6633,1.957,5.81,11111222 
LUMCON,ioos:station:LUMCON:101:1,2019-05-03T06:30:00Z,29.2533,-90.6633,1.947,5.81,11111222 
LUMCON,ioos:station:LUMCON:101:1,2019-05-03T06:45:00Z,29.2533,-90.6633,1.954,5.75,11111222 
LUMCON,ioos:station:LUMCON:101:1,2019-05-03T07:00:00Z,29.2533,-90.6633,1.961,5.6,11111222 
LUMCON,ioos:station:LUMCON:101:1,2019-05-03T07:15:00Z,29.2533,-90.6633,1.98,5.39,11111222 
LUMCON,ioos:station:LUMCON:101:1,2019-05-03T07:30:00Z,29.2533,-90.6633,1.988,5.21,11111222 
LUMCON,ioos:station:LUMCON:101:1,2019-05-03T07:45:00Z,29.2533,-90.6633,1.994,5.12,11111222 
LUMCON,ioos:station:LUMCON:101:1,2019-05-03T08:00:00Z,29.2533,-90.6633,1.996,5.18,11111222 
LUMCON,ioos:station:LUMCON:101:1,2019-05-03T08:15:00Z,29.2533,-90.6633,1.987,4.92,11111222 
LUMCON,ioos:station:LUMCON:101:1,2019-05-03T08:30:00Z,29.2533,-90.6633,1.99,5.36,11111222 
LUMCON,ioos:station:LUMCON:101:1,2019-05-03T08:45:00Z,29.2533,-90.6633,1.986,5.09,11111222 
LUMCON,ioos:station:LUMCON:101:1,2019-05-03T09:00:00Z,29.2533,-90.6633,1.988,4.36,11111222 
LUMCON,ioos:station:LUMCON:101:1,2019-05-03T09:15:00Z,29.2533,-90.6633,1.986,5.41,11111222 
LUMCON,ioos:station:LUMCON:101:1,2019-05-03T09:30:00Z,29.2533,-90.6633,1.985,5.47,11111222 
LUMCON,ioos:station:LUMCON:101:1,2019-05-03T09:45:00Z,29.2533,-90.6633,1.976,5.35,11111222 
LUMCON,ioos:station:LUMCON:101:1,2019-05-03T10:00:00Z,29.2533,-90.6633,1.97,4.97,11111222 
LUMCON,ioos:station:LUMCON:101:1,2019-05-03T10:15:00Z,29.2533,-90.6633,1.974,4.98,11111222 
LUMCON,ioos:station:LUMCON:101:1,2019-05-03T10:30:00Z,29.2533,-90.6633,1.979,4.87,11111222 
LUMCON,ioos:station:LUMCON:101:1,2019-05-03T10:45:00Z,29.2533,-90.6633,1.982,4.81,11111222 
LUMCON,ioos:station:LUMCON:101:1,2019-05-03T11:00:00Z,29.2533,-90.6633,1.985,4.52,11111222 
LUMCON,ioos:station:LUMCON:101:1,2019-05-03T11:15:00Z,29.2533,-90.6633,1.991,4.07,11111222 
LUMCON,ioos:station:LUMCON:101:1,2019-05-03T11:30:00Z,29.2533,-90.6633,2.0,4.49,11111222 
LUMCON,ioos:station:LUMCON:101:1,2019-05-03T11:45:00Z,29.2533,-90.6633,2.002,4.23,11111222 
LUMCON,ioos:station:LUMCON:101:1,2019-05-03T12:00:00Z,29.2533,-90.6633,2.012,4.56,11111222 
LUMCON,ioos:station:LUMCON:101:1,2019-05-03T12:15:00Z,29.2533,-90.6633,2.013,4.74,11111222 
LUMCON,ioos:station:LUMCON:101:1,2019-05-03T12:30:00Z,29.2533,-90.6633,2.016,5.22,11111222 
LUMCON,ioos:station:LUMCON:101:1,2019-05-03T12:45:00Z,29.2533,-90.6633,2.025,5.12,11111222 
LUMCON,ioos:station:LUMCON:101:1,2019-05-03T13:00:00Z,29.2533,-90.6633,2.026,4.81,11111222 
LUMCON,ioos:station:LUMCON:101:1,2019-05-03T13:15:00Z,29.2533,-90.6633,2.021,4.93,11111222 
LUMCON,ioos:station:LUMCON:101:1,2019-05-03T13:30:00Z,29.2533,-90.6633,2.019,5.07,11111222 
LUMCON,ioos:station:LUMCON:101:1,2019-05-03T13:45:00Z,29.2533,-90.6633,2.013,5.29,11111222 
LUMCON,ioos:station:LUMCON:101:1,2019-05-03T14:00:00Z,29.2533,-90.6633,2.016,4.96,11111222 
LUMCON,ioos:station:LUMCON:101:1,2019-05-03T14:15:00Z,29.2533,-90.6633,2.017,5.14,11111222 
LUMCON,ioos:station:LUMCON:101:1,2019-05-03T14:30:00Z,29.2533,-90.6633,2.02,4.99,11111222 
LUMCON,ioos:station:LUMCON:101:1,2019-05-03T14:45:00Z,29.2533,-90.6633,2.039,4.42,11111222 
LUMCON,ioos:station:LUMCON:101:1,2019-05-03T15:00:00Z,29.2533,-90.6633,2.039,4.47,11111222 
LUMCON,ioos:station:LUMCON:101:1,2019-05-03T15:15:00Z,29.2533,-90.6633,2.034,5.22,11111222 
LUMCON,ioos:station:LUMCON:101:1,2019-05-03T15:30:00Z,29.2533,-90.6633,2.038,5.66,11111222 
LUMCON,ioos:station:LUMCON:101:1,2019-05-03T15:45:00Z,29.2533,-90.6633,2.033,5.44,11111222 
LUMCON,ioos:station:LUMCON:101:1,2019-05-03T16:00:00Z,29.2533,-90.6633,2.036,5.37,11111222 
LUMCON,ioos:station:LUMCON:101:1,2019-05-03T16:15:00Z,29.2533,-90.6633,2.039,5.32,11111222 
LUMCON,ioos:station:LUMCON:101:1,2019-05-03T16:30:00Z,29.2533,-90.6633,2.039,5.47,11111222 
LUMCON,ioos:station:LUMCON:101:1,2019-05-03T16:45:00Z,29.2533,-90.6633,2.046,5.0,11111222 